This demonstration page uses our WeatherBlox Daily Observations layout. Learn more.

Left ArrowRight Arrow

Hourly Observations for June 26, 2022

Temp ( °F °C ) Dew Point ( °F °C ) Humidity (%) Winds ( mph kmh ) Pressure ( in mb ) Visibility ( mi km ) Precip ( " mm )
12:15 am 00:15 Cloudy 75 24 64 18 69 69 Calm 30.01 1016 10 16 N/A
12:35 am 00:35 Cloudy 75 24 64 18 69 69 Calm 30.01 1016 10 16 N/A
12:55 am 00:55 Mostly Cloudy 75 24 64 18 69 69 SSE 5 7 29.99 1015 10 16 N/A
1:15 am 01:15 Mostly Cloudy 75 24 64 18 69 69 SSE 3 6 29.99 1015 10 16 N/A
1:35 am 01:35 Mostly Cloudy 75 24 64 18 69 69 S 7 11 29.98 1015 10 16 N/A
1:55 am 01:55 Clear 75 24 64 18 69 69 S 6 9 29.98 1015 10 16 N/A
2:15 am 02:15 Clear 75 24 64 18 69 69 S 6 9 29.98 1015 10 16 N/A
2:35 am 02:35 Partly Cloudy 75 24 64 18 69 69 S 7 11 29.98 1015 10 16 N/A
2:55 am 02:55 Cloudy 75 24 64 18 69 69 SSW 9 15 29.98 1015 10 16 N/A
3:15 am 03:15 Cloudy 77 25 64 18 65 65 SW 10 17 30.00 1016 10 16 N/A
3:35 am 03:35 Cloudy 77 25 64 18 65 65 SW 9 15 29.99 1016 10 16 N/A
3:55 am 03:55 Cloudy 75 24 68 20 78 78 WSW 12 19 29.99 1015 10 16 N/A
4:15 am 04:15 Cloudy 73 23 68 20 83 83 SW 6 9 29.98 1015 10 16 N/A
4:35 am 04:35 Partly Cloudy 75 24 68 20 78 78 SSW 5 7 29.96 1014 10 16 N/A
4:55 am 04:55 Clear 73 23 68 20 83 83 W 7 11 29.97 1015 10 16 N/A
5:15 am 05:15 Clear 73 23 68 20 83 83 Calm 29.97 1015 10 16 N/A
5:35 am 05:35 Partly Cloudy 72 22 70 21 94 94 Calm 29.97 1015 10 16 N/A
5:55 am 05:55 Clear 72 22 68 20 88 88 WNW 6 9 29.98 1015 10 16 N/A
6:15 am 06:15 Partly Cloudy 72 22 70 21 94 94 WSW 3 6 29.99 1016 10 16 N/A
6:35 am 06:35 Sunny 70 21 70 21 100 100 WNW 5 7 30.00 1016 10 16 N/A
6:55 am 06:55 Sunny 70 21 70 21 100 100 Calm 29.99 1015 10 16 N/A
7:15 am 07:15 Sunny 70 21 70 21 100 100 Calm 30.00 1016 10 16 N/A
7:35 am 07:35 Sunny 70 21 70 21 100 100 Calm 30.00 1016 10 16 N/A
7:55 am 07:55 Sunny 72 22 70 21 94 94 W 8 13 30.00 1016 10 16 N/A
8:15 am 08:15 Sunny 72 22 70 21 94 94 W 6 9 30.01 1016 10 16 N/A
8:35 am 08:35 Sunny 72 22 70 21 94 94 W 7 11 30.01 1016 10 16 N/A
8:55 am 08:55 Sunny 73 23 70 21 89 89 W 7 11 30.01 1016 10 16 N/A
9:15 am 09:15 Sunny 73 23 70 21 89 89 W 7 11 30.01 1016 10 16 N/A
9:35 am 09:35 Sunny 75 24 70 21 83 83 W 6 9 30.01 1016 10 16 N/A
9:55 am 09:55 Partly Cloudy 75 24 70 21 83 83 W 12 19 30.01 1016 10 16 N/A
10:15 am 10:15 Partly Cloudy 77 25 70 21 79 79 W 9 15 30.00 1016 10 16 N/A
10:35 am 10:35 Mostly Cloudy 75 24 72 22 89 89 W 12 19 30.02 1016 10 16 N/A
10:55 am 10:55 Cloudy 75 24 72 22 89 89 W 12 19 30.02 1016 10 16 N/A
11:15 am 11:15 Cloudy 77 25 72 22 83 83 W 9 15 30.02 1017 10 16 N/A
11:35 am 11:35 Cloudy 77 25 72 22 83 83 W 12 19 30.03 1017 10 16 N/A
11:55 am 11:55 Cloudy 77 25 72 22 83 83 W 8 13 30.03 1017 10 16 N/A
12:15 pm 12:15 Cloudy 77 25 73 23 89 89 WNW 10 17 30.03 1017 10 16 N/A
12:35 pm 12:35 Cloudy 79 26 73 23 84 84 NW 9 15 30.03 1017 10 16 N/A
12:55 pm 12:55 Cloudy 79 26 72 22 79 79 W 9 15 30.03 1017 10 16 N/A
1:15 pm 13:15 Cloudy 79 26 72 22 79 79 W 10 17 30.03 1017 10 16 N/A
1:35 pm 13:35 Cloudy 77 25 72 22 83 83 WNW 9 15 30.03 1017 10 16 N/A
1:55 pm 13:55 Cloudy 79 26 72 22 79 79 W 9 15 30.03 1017 10 16 N/A
2:15 pm 14:15 Cloudy 79 26 72 22 79 79 WNW 9 15 30.03 1017 10 16 N/A
2:35 pm 14:35 Cloudy 79 26 72 22 79 79 WNW 8 13 30.03 1017 10 16 N/A
2:55 pm 14:55 Cloudy 79 26 70 21 74 74 NW 9 15 30.02 1017 10 16 N/A
3:15 pm 15:15 Mostly Cloudy 82 28 72 22 70 70 W 8 13 30.00 1016 10 16 N/A
3:35 pm 15:35 Mostly Cloudy 84 29 70 21 62 62 WNW 10 17 29.99 1016 10 16 N/A
3:55 pm 15:55 Mostly Cloudy 84 29 70 21 62 62 NW 8 13 29.98 1015 10 16 N/A
4:15 pm 16:15 Cloudy 84 29 70 21 62 62 WNW 13 20 29.98 1015 10 16 N/A
4:35 pm 16:35 Cloudy 82 28 68 20 62 62 WNW 13 20 29.99 1016 10 16 N/A
4:55 pm 16:55 Cloudy 82 28 70 21 66 66 WNW 9 15 29.99 1016 10 16 N/A
5:15 pm 17:15 Cloudy 82 28 68 20 62 62 NW 10 17 29.99 1016 10 16 N/A
5:35 pm 17:35 Mostly Cloudy 82 28 68 20 62 62 NW 12 19 29.98 1015 10 16 N/A
5:55 pm 17:55 Partly Cloudy 81 27 68 20 66 66 WNW 10 17 29.99 1015 10 16 N/A
6:15 pm 18:15 Mostly Cloudy 82 28 68 20 62 62 NW 12 19 29.97 1015 10 16 N/A
6:35 pm 18:35 Partly Cloudy 82 28 66 19 58 58 NW 12 19 29.96 1015 10 16 N/A
6:55 pm 18:55 Partly Cloudy 81 27 64 18 58 58 WNW 13 20 29.98 1015 10 16 N/A
7:15 pm 19:15 Partly Cloudy 81 27 66 19 62 62 WNW 10 17 29.99 1015 10 16 N/A
7:35 pm 19:35 Sunny 79 26 64 18 61 61 WNW 12 19 30.00 1016 10 16 N/A
7:55 pm 19:55 Partly Cloudy 79 26 63 17 58 58 WNW 16 26 30.00 1016 10 16 N/A
8:15 pm 20:15 Sunny 77 25 61 16 57 57 WNW 13 20 30.01 1016 10 16 N/A
8:35 pm 20:35 Sunny 75 24 59 15 57 57 W 13 20 30.03 1017 10 16 N/A
8:55 pm 20:55 Sunny 75 24 57 14 54 54 WNW 13 20 30.04 1017 10 16 N/A
9:15 pm 21:15 Sunny 75 24 55 13 50 50 WNW 14 22 30.05 1017 10 16 N/A
9:35 pm 21:35 Clear 73 23 55 13 53 53 NW 12 19 30.07 1018 10 16 N/A
9:55 pm 21:55 Clear 72 22 54 12 53 53 WNW 8 13 30.08 1019 10 16 N/A
10:15 pm 22:15 Clear 72 22 54 12 53 53 WNW 9 15 30.09 1019 10 16 N/A
10:35 pm 22:35 Clear 70 21 54 12 57 57 WNW 7 11 30.10 1019 10 16 N/A
10:55 pm 22:55 Clear 68 20 54 12 60 60 WNW 6 9 30.11 1020 10 16 N/A
11:15 pm 23:15 Clear 66 19 54 12 64 64 WNW 7 11 30.11 1020 10 16 N/A
11:35 pm 23:35 Clear 66 19 55 13 68 68 WNW 7 11 30.11 1020 10 16 N/A
11:55 pm 23:55 Clear 66 19 55 13 68 68 WNW 7 11 30.11 1020 10 16 N/A

Powered by AerisWeather